Lapse_Rate
5.3 5.9 6.0 5.5 5.3 4.2 4.0 3.8 4.0 3.8 3.5 4.0 4.5 4.7 5.1 6.6 6.8 6.4 6.1 6.6 6.4 6.6 6.3 6.4 6.4 6.3 6.7 6.1 5.6 6.0 5.9 5.7 5.6 5.6 6.0 5.7 6.0 6.0 6.3 6.5 6.2 6.5 5.6 6.2
5.5 5.6 5.7 5.5 5.2 4.2 3.8 3.6 3.7 3.7 3.5 4.1 4.6 4.7 5.1 6.3 7.2 7.1 7.1 6.6 6.4 6.8 6.4 6.6 6.6 6.6 6.8 7.1 7.1 6.2 6.1 5.8 5.7 6.4 6.5 6.5 6.4 6.5 6.3 6.2 6.0 6.2 6.0 6.1
5.8 5.7 5.7 5.6 4.1 3.7 3.6 3.4 3.4 2.9 3.2 3.8 4.5 4.4 4.5 5.5 6.2 7.3 6.8 6.9 6.9 6.7 6.5 6.5 6.8 6.8 6.5 6.4 6.8 7.1 6.8 6.7 6.8 6.9 6.9 7.1 6.9 6.6 6.5 6.4 6.3 6.0 6.0 5.8
5.2 5.9 6.4 5.0 4.5 3.9 3.4 3.3 3.2 4.1 3.3 3.2 3.9 4.2 4.1 4.7 5.6 6.8 7.1 6.7 6.6 6.5 6.4 6.3 6.5 6.7 7.0 6.5 6.5 6.8 6.7 6.7 6.9 7.0 6.9 6.6 6.4 6.4 6.3 6.3 6.1 6.1 6.0 5.7
5.2 5.6 5.5 4.8 4.1 3.8 3.3 3.3 3.3 3.6 3.9 4.7 4.9 4.7 4.7 5.6 5.9 6.7 7.2 7.0 6.8 6.4 6.3 6.5 6.5 6.5 6.7 6.9 6.8 6.6 6.6 6.7 6.6 6.7 6.4 6.2 6.1 6.1 6.0 5.9 5.8 6.0 6.0 6.1
4.9 5.4 5.8 4.6 4.5 4.1 3.9 3.6 3.5 3.2 3.7 4.3 5.1 5.8 5.1 5.7 5.3 5.6 6.2 6.8 6.9 6.9 6.4 6.1 6.0 6.2 6.4 6.5 6.6 6.8 6.8 7.0 6.9 6.7 6.4 6.1 6.0 6.0 5.9 5.9 5.9 5.8 5.9 5.9
4.6 5.1 4.7 4.4 4.2 4.4 3.1 2.8 3.0 3.2 3.4 4.0 3.5 3.7 4.2 4.7 4.9 5.1 5.7 6.8 6.8 6.7 6.5 6.6 6.5 6.4 6.4 6.5 6.4 6.6 6.9 7.0 6.9 6.8 6.5 6.0 5.9 5.9 6.0 6.0 6.0 6.0 6.0 6.0
4.1 4.6 4.7 3.9 4.3 3.1 2.8 2.9 2.6 2.6 2.7 3.1 3.3 3.9 4.5 4.8 5.3 6.1 6.2 6.5 6.4 6.7 6.9 6.8 6.7 6.6 6.6 6.5 6.5 6.5 6.5 6.5 6.5 6.3 6.2 6.2 6.1 6.0 6.0 6.0 5.9 5.8 5.8 5.9
3.4 3.6 3.8 3.6 3.4 3.7 3.1 3.1 3.1 3.0 2.9 2.9 3.5 4.3 4.8 5.2 5.5 5.9 6.2 6.5 6.6 6.9 7.0 7.1 7.1 7.0 6.8 6.6 6.6 6.6 6.1 6.1 6.1 6.2 6.1 6.0 6.0 5.9 5.9 5.9 5.8 5.9 6.0 5.7
3.4 3.4 3.9 3.9 3.5 3.5 3.4 3.4 3.1 3.3 3.4 3.6 4.2 4.7 5.1 5.5 6.0 6.4 6.5 6.4 6.4 6.2 6.8 7.1 7.3 7.2 7.1 7.2 7.0 6.9 6.6 6.6 6.4 6.3 6.3 6.2 6.1 5.9 5.9 6.1 6.0 6.1 6.1 6.0
3.6 3.2 3.8 4.1 3.7 3.8 4.1 3.6 3.8 3.4 3.7 4.0 4.4 4.5 4.7 5.0 5.6 6.0 6.2 6.5 6.6 6.4 6.5 6.7 6.8 7.1 7.2 7.3 7.1 6.9 6.8 6.8 6.7 6.5 6.4 6.3 6.2 6.0 6.0 5.9 6.0 5.8 5.9 5.9
3.4 3.1 3.3 3.9 4.1 4.1 3.9 4.0 4.0 4.1 3.6 3.6 4.0 4.5 4.8 4.9 5.0 5.3 5.8 6.2 6.3 6.5 6.4 6.5 6.6 7.0 7.0 7.0 6.8 7.1 6.8 6.8 6.6 6.7 6.7 6.7 6.7 6.7 6.5 6.1 6.0 6.5 6.2 6.2
3.8 4.0 3.5 3.9 4.1 3.9 3.9 4.0 3.9 3.6 3.7 3.9 4.1 4.4 4.7 4.8 4.8 4.8 5.2 5.7 6.0 6.4 6.7 6.8 6.8 6.8 6.9 6.9 6.7 6.6 6.5 7.0 6.6 6.6 6.5 6.7 6.7 6.8 6.6 6.5 6.4 6.5 6.3 6.0
4.5 4.5 3.9 3.8 4.3 3.8 3.6 3.8 3.4 3.4 3.4 3.5 3.7 4.0 4.3 4.4 4.6 4.7 4.9 5.5 6.1 6.5 6.7 7.0 7.1 7.1 7.1 7.0 6.7 6.7 6.5 6.4 6.6 6.5 6.6 6.5 6.5 6.6 6.4 6.3 6.5 6.2 6.2 6.2
5.0 4.9 4.4 4.0 4.1 3.9 3.7 3.4 3.3 3.3 3.3 3.4 3.4 3.4 3.5 3.8 4.0 4.2 4.9 5.5 5.8 6.0 6.5 6.8 7.1 7.2 7.1 7.1 6.6 6.5 6.2 6.3 6.2 6.6 6.7 6.4 6.5 6.2 6.2 6.3 6.2 6.3 6.3 6.2
5.3 5.1 4.4 4.0 4.1 4.0 3.8 3.7 3.5 3.6 3.7 3.6 3.5 3.6 3.6 3.8 4.2 4.6 4.9 5.2 5.5 5.9 6.1 6.3 6.7 7.0 7.0 6.4 6.3 6.3 6.2 6.2 6.3 6.5 6.4 6.3 6.4 6.5 6.3 6.3 6.2 6.1 6.0 6.0
5.2 5.1 4.5 4.1 4.1 4.0 3.8 3.6 3.5 3.4 3.3 3.4 3.7 3.6 3.7 4.0 4.1 4.2 4.5 5.0 5.3 5.6 5.9 6.0 6.3 6.5 6.3 6.1 6.0 6.1 6.0 6.1 6.3 6.4 6.4 6.3 6.1 6.2 6.3 6.3 6.3 6.3 6.3 6.3
5.2 4.8 4.5 4.3 4.3 4.2 3.8 3.6 3.3 3.1 3.5 3.6 3.7 3.7 3.7 3.9 3.9 4.0 4.3 4.4 4.6 4.9 5.3 5.6 5.8 6.0 5.9 5.8 5.8 5.7 5.8 5.9 5.9 6.1 6.0 6.0 6.0 6.0 6.2 6.1 6.0 6.1 6.0 5.9
5.0 4.9 4.6 4.5 4.4 4.2 3.9 3.8 3.7 3.7 3.5 3.5 3.5 3.7 3.7 3.7 3.5 3.7 3.7 3.8 4.0 4.3 4.6 4.9 5.1 5.4 5.6 5.7 5.7 5.7 5.7 5.6 5.7 5.9 6.0 6.0 6.0 5.9 5.8 5.7 5.4 5.3 5.4 5.8
5.2 4.9 4.6 4.6 4.5 4.2 3.9 3.7 3.4 3.4 3.3 3.6 3.6 3.6 3.7 3.8 3.6 3.3 3.4 3.6 3.7 3.9 4.2 4.4 4.6 4.7 5.0 5.2 5.3 5.3 5.5 5.5 5.6 5.7 5.7 5.7 5.6 5.7 5.2 4.9 5.1 5.1 5.1 5.2
5.2 4.9 4.7 4.6 4.4 4.1 3.8 3.5 3.5 3.4 3.4 3.6 3.6 3.8 3.9 4.0 3.6 3.4 3.4 3.6 3.6 3.4 3.6 3.9 4.1 4.3 4.5 4.6 4.7 4.8 5.0 5.0 5.1 5.1 5.2 5.2 5.2 5.1 5.0 4.9 4.8 4.8 4.8 4.7
5.1 4.8 4.8 4.5 4.3 4.1 3.8 3.6 3.5 3.4 3.3 3.6 3.5 3.6 3.7 3.9 4.0 3.9 3.8 3.9 3.8 3.6 3.5 3.5 3.7 3.9 4.1 4.2 4.4 4.5 4.5 4.6 4.7 4.7 4.7 4.7 4.7 4.6 4.5 4.5 4.4 4.4 4.4 4.3
5.0 4.7 4.6 4.5 4.2 4.0 3.9 3.7 3.5 3.4 3.5 3.5 3.4 3.6 3.8 4.1 4.0 4.2 4.3 4.4 4.1 3.9 3.8 3.8 3.5 3.5 3.6 3.8 3.9 4.0 4.1 4.2 4.3 4.3 4.3 4.3 4.3 4.3 4.4 4.4 4.4 4.4 4.4 4.5
4.7 4.6 4.5 4.4 4.2 4.0 3.8 3.7 3.6 3.6 3.7 3.8 3.8 3.7 3.7 3.6 3.6 3.7 4.0 3.8 3.5 3.8 4.0 4.1 4.0 3.8 3.7 3.9 3.9 4.0 4.1 4.1 4.2 4.2 4.3 4.3 4.4 4.5 4.6 4.6 4.6 4.8 4.8 4.9
4.7 4.6 4.4 4.3 4.1 4.0 4.0 4.1 4.0 3.9 4.0 4.1 4.0 3.9 3.9 3.8 3.7 3.5 3.6 4.0 3.9 3.8 3.5 3.6 3.8 4.0 4.0 4.2 4.2 4.3 4.3 4.4 4.5 4.5 4.6 4.7 4.8 4.8 4.9 4.9 5.0 5.0 5.0 5.0
4.7 4.5 4.4 4.4 4.1 4.1 4.3 4.5 4.4 4.3 4.2 4.0 3.9 3.9 3.8 3.8 3.5 3.3 3.9 4.2 4.1 4.0 4.1 4.2 4.3 4.2 4.3 4.4 4.5 4.5 4.6 4.7 4.7 4.8 4.9 4.9 4.9 4.9 5.0 5.0 5.1 5.1 5.1 5.0
4.9 4.7 4.5 4.3 4.4 4.3 4.5 4.6 4.5 4.5 4.3 4.1 4.0 3.8 3.8 3.9 4.1 4.2 4.3 4.4 4.4 4.3 4.3 4.3 4.3 4.3 4.3 4.4 4.5 4.5 4.6 4.6 4.8 4.9 5.0 5.0 5.0 5.0 5.1 5.0 5.0 5.0 5.0 5.0
Wind_Speed
20 17 5 13 19 18 16 13 10 22 19 21 28 27 24 21 24 22 21 21 18 15 14 8 12 13 16 20 19 15 15 16 15 15 16 16 15 14 13 14 13 14 12 11
15 3 7 1 18 18 15 11 11 18 17 23 25 25 23 25 25 22 22 20 18 16 14 12 12 12 14 16 15 16 15 15 14 15 15 15 15 15 14 13 13 12 13 14
5 15 4 2 14 17 16 9 17 20 22 25 26 26 22 24 22 22 22 20 19 16 13 11 10 9 13 14 14 13 13 14 14 14 14 13 14 14 13 13 14 14 13 13
9 15 1 6 13 15 15 7 20 23 22 22 23 25 10 21 21 20 21 20 17 13 12 11 9 8 9 11 13 12 12 13 14 14 14 13 13 13 12 11 12 12 11 11
6 10 3 3 17 21 15 3 22 26 27 27 28 21 9 26 25 23 21 18 14 11 10 8 10 8 5 8 12 12 12 12 14 14 14 14 13 13 12 11 11 10 10 12
9 5 5 10 23 24 14 4 26 23 24 27 27 19 16 27 22 21 19 14 13 11 9 12 12 9 3 7 12 12 12 13 13 13 14 14 13 13 10 10 10 9 10 11
10 4 3 16 22 20 8 11 23 21 21 21 16 13 20 20 18 15 14 16 17 15 14 15 14 10 10 10 7 5 10 11 11 11 12 12 11 10 10 10 10 9 9 8
7 5 5 22 11 9 10 17 17 16 14 16 17 18 18 18 19 18 19 21 20 16 16 15 15 12 9 10 7 2 11 10 9 9 8 9 12 9 10 11 11 11 11 8
4 6 15 15 8 13 15 18 18 18 17 15 17 18 19 18 19 19 20 17 17 15 15 15 15 13 11 10 8 4 11 10 10 9 8 9 11 10 8 9 9 9 8 9
8 4 14 15 10 15 18 19 20 18 17 17 17 18 19 17 17 17 17 17 16 16 16 16 14 13 11 10 7 6 9 8 8 10 9 8 6 7 8 8 8 9 9 9
11 5 17 1 19 19 21 19 20 20 17 16 16 17 17 15 16 15 15 15 14 14 13 15 14 14 13 12 8 8 7 6 7 7 8 8 6 5 5 3 6 9 9 10
4 14 8 18 19 22 18 19 18 18 17 16 15 15 16 13 13 13 14 15 14 14 13 14 13 13 13 11 8 6 7 5 5 7 7 7 8 8 13 12 13 14 14 9
6 14 16 19 18 14 18 19 17 15 14 15 14 13 14 12 13 15 13 13 13 13 12 12 12 12 11 10 8 7 6 6 6 6 7 8 7 9 10 11 18 19 21 19
11 10 9 8 11 18 16 15 15 13 11 11 12 13 12 11 11 11 12 12 11 11 12 12 11 12 11 9 8 8 6 12 6 6 6 7 6 7 8 9 10 8 17 18
2 9 12 14 14 13 12 11 12 10 11 11 10 9 10 10 10 10 10 11 10 10 11 11 11 12 11 9 9 8 5 5 7 6 6 9 8 7 7 8 8 10 9 15
12 11 9 9 10 10 10 11 11 10 11 10 11 11 10 9 9 10 10 10 11 11 10 9 10 10 10 10 9 7 7 15 11 7 8 8 7 8 8 8 8 8 9 10
8 6 9 9 9 9 8 7 8 8 8 9 10 10 9 10 10 11 11 10 9 10 11 9 9 9 9 9 9 7 6 7 14 9 7 8 9 8 8 9 9 8 8 10
6 7 7 8 7 7 7 7 6 7 8 9 8 8 9 10 10 10 10 10 9 10 12 11 10 9 9 9 8 7 7 8 8 8 8 10 11 10 10 11 11 11 10 12
5 6 6 6 5 5 6 6 7 7 8 7 7 8 9 9 10 10 10 11 12 11 11 10 16 13 11 13 11 7 8 10 10 9 10 15 11 10 10 11 10 10 9 8
4 4 5 5 5 7 6 6 7 6 7 7 8 9 10 12 12 11 10 13 12 9 10 11 10 10 10 13 15 8 9 10 10 10 9 10 10 11 11 15 11 9 9 9
3 4 5 5 6 7 7 7 7 8 8 9 10 10 10 10 12 13 12 9 13 13 13 15 10 7 7 9 10 9 9 9 10 9 10 9 10 10 10 10 9 8 8 8
3 4 5 5 6 6 7 7 7 7 8 9 10 9 10 12 11 10 12 10 8 19 10 8 8 16 11 16 8 9 10 10 9 8 9 9 9 9 9 9 9 8 8 8
1 3 3 4 5 5 5 7 7 7 8 9 9 8 8 7 7 7 8 12 9 15 9 10 17 21 21 10 9 9 10 11 10 9 9 8 8 8 8 8 8 8 7 7
0 2 3 3 3 4 5 5 5 6 6 7 9 9 7 5 6 6 7 11 16 16 13 12 16 22 19 9 9 9 9 9 9 9 9 13 8 8 8 7 8 7 7 9
0 2 3 2 2 2 3 4 2 4 5 6 7 7 8 5 5 5 6 7 16 11 9 18 21 21 10 9 9 10 9 8 8 8 8 8 8 7 7 7 7 6 6 8
2 2 3 3 2 2 2 2 2 3 3 3 4 5 5 5 5 5 6 9 8 11 8 8 7 8 9 9 9 9 8 8 8 8 8 7 7 7 6 6 7 8 8 9
2 3 2 3 2 2 2 2 2 3 3 3 4 4 5 5 6 6 8 6 6 7 7 7 9 11 8 8 7 9 10 11 13 9 9 9 9 8 8 8 9 9 9 8
Wind_Direction
317 298 146 46 18 351 354 21 360 327 329 345 339 339 340 349 356 359 3 3 2 6 15 142 157 156 151 156 160 158 152 151 165 163 157 156 159 157 152 160 163 164 163 170
307 294 291 146 12 355 354 10 347 346 345 340 334 338 344 359 355 355 0 359 356 360 7 16 9 163 154 155 155 160 156 153 160 159 156 155 153 153 154 154 153 161 165 160
295 331 292 145 6 344 339 17 7 6 333 331 337 340 343 353 353 356 353 352 354 352 351 359 3 351 160 151 147 153 152 155 156 153 151 152 146 148 152 157 159 167 169 164
303 320 75 135 21 342 337 47 10 349 341 335 333 328 335 359 353 350 352 349 346 343 344 349 0 4 343 135 140 141 150 151 152 149 148 146 144 147 147 150 157 159 161 158
321 314 112 219 353 345 343 336 13 345 337 340 339 328 4 356 357 353 346 340 337 332 343 0 8 353 351 140 139 141 144 149 150 147 145 144 145 151 153 153 159 161 158 155
324 308 354 11 340 332 312 262 4 341 337 337 340 355 342 343 346 342 338 333 339 344 8 24 7 348 5 140 143 148 148 148 150 148 148 149 150 153 154 152 150 148 153 157
343 328 99 3 348 325 29 325 333 335 332 329 331 330 316 327 337 337 338 343 355 9 23 19 7 16 45 63 55 125 136 140 138 141 140 141 140 141 142 139 131 132 136 142
332 342 351 9 353 23 326 320 324 330 319 317 328 325 331 339 339 347 353 359 4 12 18 16 16 18 27 38 333 96 118 109 108 112 124 132 133 133 131 132 131 128 119 110
313 315 332 347 8 347 339 331 330 321 323 333 332 336 340 344 351 355 0 0 2 8 11 16 15 17 21 356 345 78 109 110 106 98 109 123 124 120 118 129 135 136 136 132
318 66 332 316 359 350 346 336 328 329 335 342 342 343 346 348 350 354 360 3 360 5 9 11 9 14 14 360 359 65 105 107 112 115 104 101 112 126 133 141 142 143 143 140
270 280 328 275 340 341 336 333 336 337 345 346 346 350 351 350 350 353 357 358 4 5 4 6 3 9 10 6 13 62 75 92 103 106 112 105 91 111 124 98 153 156 155 154
299 338 310 303 318 325 328 334 338 340 341 346 353 350 350 353 351 357 358 355 360 3 3 0 7 9 7 7 16 50 73 76 98 114 112 109 110 100 93 103 110 110 114 126
276 312 303 296 302 331 331 330 338 345 343 345 350 353 356 353 354 0 357 356 360 357 358 1 4 11 9 11 23 45 82 84 94 104 116 122 125 126 121 105 111 120 121 126
289 306 298 331 320 318 326 335 337 346 350 355 351 354 355 357 353 360 1 351 355 2 6 5 5 9 7 10 32 45 56 93 91 94 100 106 113 119 123 128 127 122 130 134
314 302 292 298 305 327 334 341 349 350 352 350 352 348 349 356 0 359 358 1 3 12 12 9 7 7 6 17 37 43 52 72 89 88 97 102 99 99 104 112 120 116 123 126
309 304 300 314 325 335 341 347 353 350 351 350 354 354 350 356 3 4 5 7 15 10 9 12 13 5 9 18 39 48 60 76 79 92 92 92 98 101 105 106 105 109 120 127
306 324 334 330 332 334 343 342 345 341 341 353 356 349 357 10 17 10 7 5 18 16 9 19 20 15 21 26 37 43 54 68 79 78 85 94 96 98 98 100 102 99 97 102
289 290 295 300 317 335 344 351 346 349 356 349 351 355 9 16 12 7 6 7 19 27 18 11 29 33 35 39 48 52 60 66 73 81 88 88 89 91 91 90 90 92 94 101
322 322 328 337 341 346 352 349 353 358 354 353 4 16 19 20 10 9 13 23 23 24 15 14 30 37 47 55 57 60 68 74 74 75 80 85 82 83 86 88 89 88 89 90
337 338 343 346 10 8 4 360 354 13 5 5 21 24 30 24 19 13 15 31 24 18 17 24 31 36 41 54 63 63 70 74 77 78 78 80 82 84 85 84 86 85 86 86
10 360 359 12 22 24 18 12 13 20 17 22 27 26 19 23 27 20 21 24 15 20 26 31 38 38 50 56 57 63 67 70 72 77 80 82 85 82 83 84 84 84 85 85
21 19 8 14 27 30 19 21 26 29 27 30 32 33 32 29 19 32 30 27 14 28 32 32 39 56 59 57 56 61 64 66 70 74 76 79 81 82 80 80 81 82 86 88
51 37 23 18 23 24 31 29 31 33 40 37 35 31 42 38 20 19 27 16 32 37 36 44 54 57 57 48 53 58 62 63 65 66 68 70 73 78 82 84 85 90 91 91
108 65 43 16 12 40 42 27 32 35 38 44 46 38 33 31 39 21 33 37 39 45 51 50 52 55 56 51 53 55 58 61 63 68 75 75 75 79 82 85 87 87 92 93
116 89 73 47 42 37 27 13 39 32 37 41 39 43 42 36 40 38 36 32 44 46 43 45 51 50 47 48 51 56 60 62 63 68 69 71 73 75 76 79 85 87 86 87
196 146 110 77 43 12 32 24 49 41 36 41 39 34 35 41 42 35 40 50 46 45 43 45 46 45 47 50 51 51 53 55 55 62 65 66 67 70 72 72 74 77 76 78
206 184 161 139 92 35 38 62 70 55 43 44 60 33 34 38 39 44 48 49 51 50 45 44 46 50 53 53 51 56 60 65 70 65 60 63 64 65 66 68 71 79 92 106